DW7807 Weather Reports


time (UTC)temp
C
wind
direction
speed
KPH
gust
KPH
rain 1hr
cm
rain 24hr
cm
rain mn
cm
humidity
%
barometer
mb
20260508023039 8 297 0.0 0.0 0.00 0.03 0.03 57 1015.5
20260508021546 8 297 0.0 0.0 0.00 0.03 0.03 55 1015.3
20260508020038 8 297 3.2 8.0 0.00 0.03 0.03 53 1015.2
20260508014538 9 297 3.2 8.0 0.00 0.03 0.03 53 1015.0
20260508013041 9 297 3.2 6.4 0.00 0.03 0.03 52 1014.7
20260508011538 10 298 3.2 6.4 0.00 0.03 0.03 52 1014.3
20260508010036 10 298 3.2 8.0 0.00 0.03 0.03 51 1014.1
20260508004540 10 298 3.2 12.9 0.00 0.05 0.03 49 1014.1
20260508003037 11 297 3.2 12.9 0.00 0.05 0.03 49 1013.8
20260508001535 11 298 4.8 12.9 0.00 0.05 0.03 47 1013.6
20260508000034 12 295 8.0 20.9 0.00 0.05 0.03 44 1013.4
20260507234534 12 285 8.0 16.1 0.00 0.08 0.03 45 1013.2
20260507233037 12 298 8.0 17.7 0.00 0.08 0.03 44 1013.1
20260507231531 13 263 11.3 16.1 0.00 0.08 0.03 44 1012.7
20260507230031 12 284 6.4 16.1 0.00 0.08 0.03 45 1012.8
20260507224535 12 306 9.7 16.1 0.00 0.08 0.03 45 1012.7
20260507223030 13 303 11.3 19.3 0.00 0.08 0.03 45 1012.8
20260507221533 12 295 9.7 16.1 0.00 0.08 0.03 46 1012.7
20260507220030 12 281 4.8 19.3 0.00 0.08 0.03 47 1012.5
20260507214530 13 292 6.4 17.7 0.00 0.08 0.03 47 1012.3
20260507213028 13 310 9.7 24.1 0.00 0.08 0.03 47 1012.2
20260507211528 13 285 12.9 22.5 0.00 0.08 0.03 47 1012.1
20260507210038 12 317 9.7 19.3 0.00 0.08 0.03 48 1012.2
20260507204526 12 318 9.7 17.7 0.00 0.08 0.03 48 1012.1
20260507203026 13 281 9.7 22.5 0.00 0.08 0.03 49 1012.2
20260507201525 13 300 11.3 22.5 0.00 0.08 0.03 48 1012.2
20260507200026 13 304 9.7 22.5 0.00 0.08 0.03 52 1012.3
20260507194521 13 238 14.5 30.6 0.00 0.08 0.03 50 1012.5
20260507193019 12 301 8.0 19.3 0.00 0.08 0.03 53 1012.8
20260507191518 13 292 11.3 24.1 0.00 0.08 0.03 51 1012.7
20260507190017 13 316 11.3 20.9 0.00 0.08 0.03 50 1012.6
20260507184517 12 282 12.9 24.1 0.00 0.08 0.03 50 1012.8
20260507183011 13 253 9.7 20.9 0.00 0.08 0.03 49 1012.9
20260507181508 12 284 12.9 24.1 0.00 0.08 0.03 50 1012.9
20260507180006 12 314 9.7 20.9 0.00 0.08 0.03 55 1012.9
20260507174502 11 284 8.0 17.7 0.03 0.15 0.03 51 1013.1
20260507173100 12 306 4.8 19.3 0.03 0.15 0.03 55 1013.3
20260507171603 11 298 9.7 19.3 0.03 0.15 0.03 55 1013.6
20260507170057 11 338 6.4 22.5 0.03 0.15 0.03 56 1013.8
20260507164605 11 323 3.2 17.7 0.00 0.18 0.00 57 1013.7
20260507163053 11 321 8.0 16.1 0.00 0.18 0.00 58 1013.9
20260507161554 11 295 6.4 17.7 0.00 0.18 0.00 57 1014.2
20260507160053 11 325 4.8 14.5 0.00 0.18 0.00 59 1014.2
20260507154554 11 295 6.4 14.5 0.00 0.23 0.00 59 1014.2
20260507153047 10 254 0.0 0.0 0.00 0.23 0.00 58 1014.3
20260507151546 10 205 0.0 0.0 0.00 0.23 0.00 62 1014.4
20260507150043 10 300 0.0 0.0 0.00 0.23 0.00 60 1014.5
20260507144542 10 327 0.0 0.0 0.00 0.23 0.00 61 1014.7
20260507143041 10 326 0.0 0.0 0.00 0.23 0.00 62 1014.9
20260507141542 10 337 0.0 0.0 0.00 0.23 0.00 64 1015.0
20260507140038 9 321 0.0 0.0 0.00 0.23 0.00 68 1015.3
20260507134538 8 22 1.6 14.5 0.00 0.23 0.00 66 1015.4
20260507133035 8 29 0.0 0.0 0.00 0.23 0.00 70 1015.4
20260507131531 8 29 0.0 0.0 0.00 0.23 0.00 74 1015.6
20260507130037 8 29 0.0 0.0 0.00 0.23 0.00 77 1015.6
20260507124529 7 29 0.0 0.0 0.00 0.33 0.00 80 1015.5
20260507123025 7 29 0.0 0.0 0.00 0.33 0.00 83 1015.8
20260507121524 6 29 0.0 0.0 0.00 0.33 0.00 84 1015.7
20260507120024 6 29 0.0 0.0 0.00 0.33 0.00 84 1015.5
20260507114521 5 29 0.0 0.0 0.00 0.51 0.00 84 1015.4
20260507113019 5 29 0.0 0.0 0.00 0.51 0.00 84 1015.2
20260507111518 5 5 0.0 0.0 0.00 0.51 0.00 84 1015.1
20260507110017 5 5 0.0 0.0 0.00 0.51 0.00 84 1015.0
20260507104515 5 5 0.0 0.0 0.00 0.89 0.00 84 1014.9
20260507103025 5 18 0.0 0.0 0.00 0.89 0.00 84 1014.6
20260507101512 5 18 0.0 0.0 0.00 0.89 0.00 84 1014.5
20260507100011 6 18 0.0 0.0 0.00 0.89 0.00 84 1014.5
20260507094511 6 18 0.0 0.0 0.00 1.45 0.00 84 1014.3
20260507093007 6 18 0.0 0.0 0.00 1.45 0.00 84 1014.3
20260507091507 6 18 0.0 0.0 0.00 1.45 0.00 84 1014.2
20260507090006 6 18 0.0 0.0 0.00 1.45 0.00 84 1014.1
20260507084504 6 18 0.0 0.0 0.00 1.60 0.00 84 1014.0
20260507083002 7 18 0.0 0.0 0.00 1.60 0.00 84 1014.2
20260507081502 7 18 0.0 0.0 0.00 1.60 0.00 84 1014.1
20260507080116 7 18 0.0 0.0 0.00 1.60 0.00 84 1014.0
20260507074559 7 18 0.0 0.0 0.00 1.60 0.00 84 1014.0
20260507073058 7 18 0.0 0.0 0.00 1.60 0.00 84 1014.0
20260507071610 7 18 0.0 0.0 0.00 1.60 0.00 84 1013.9
20260507070057 7 18 0.0 0.0 0.00 1.60 0.00 84 1013.8
20260507064555 7 18 0.0 0.0 0.00 1.60 0.00 84 1013.8
20260507063056 7 18 0.0 0.0 0.00 1.60 0.00 84 1013.7
20260507061558 7 18 0.0 0.0 0.00 1.60 0.00 84 1013.7
20260507060057 8 18 0.0 0.0 0.00 1.60 0.00 84 1013.9
20260507054549 8 62 0.0 0.0 0.00 1.60 0.00 84 1013.9
20260507053115 8 62 0.0 0.0 0.00 1.60 0.00 84 1014.2
20260507051552 8 62 0.0 0.0 0.00 1.60 0.00 84 1014.3
20260507050047 8 62 0.0 0.0 0.00 1.60 0.00 84 1014.4
20260507044546 8 62 0.0 0.0 0.00 1.60 0.00 84 1014.2
20260507043041 8 62 0.0 0.0 0.00 1.60 0.00 84 1014.3
20260507041538 8 62 0.0 0.0 0.00 1.60 0.00 84 1014.2
20260507040033 8 62 0.0 0.0 0.00 1.60 0.00 84 1014.0
20260507034537 8 62 0.0 0.0 0.00 1.60 1.60 84 1013.9
20260507033040 8 62 0.0 0.0 0.00 1.60 1.60 84 1013.7
20260507031531 8 62 0.0 0.0 0.00 1.60 1.60 84 1014.3
20260507030031 8 62 0.0 0.0 0.00 1.60 1.60 84 1014.6
20260507024533 8 62 0.0 0.0 0.00 1.60 1.60 84 1013.9